Location: Lombard
(41.8800°N, 88.0080°W)
Time: 06:04:34
(UTC-05:00)

Vanguard 3 - Pass Details

Date: 28 January 2023
Orbit: 508 x 3249 km, 33.4° (Epoch: 27 March)

Event Time Altitude Azimuth Distance (km) Brightness Sun altitude
Rises 18:15:16 0° 204° (SSW) 4,435 11.5 -13.8°
Reaches altitude 10° 18:18:21 10° 192° (SSW) 3,819 10.9 -14.4°
Maximum altitude 18:27:00 28° 138° (SE) 3,455 10.0 -15.9°
Enters shadow 18:35:01 18° 99° (E) 4,724 10.4 -17.4°
